Temp
0 0 1 1 1 1 1 1 1 1 1 1 1 1 1 1 1 1 1 1 1 1 1 2 2 2 2 2 2 2 3 3 3 3 3 3 3 4 4 4 4 4
0 0 0 0 1 1 1 1 1 1 1 1 1 1 1 1 1 1 1 1 1 1 1 1 2 2 2 2 2 2 2 2 3 3 3 3 3 3 4 4 4 4
1 1 0 0 0 1 1 1 1 1 1 1 1 1 1 1 1 1 1 1 1 1 1 1 1 2 2 2 2 2 2 2 2 2 3 3 3 3 3 3 3 3
1 1 1 0 0 0 1 1 1 1 1 1 1 1 1 1 1 1 1 1 1 1 1 1 1 2 2 2 2 2 2 2 2 2 3 3 3 3 3 3 3 3
1 1 1 0 0 0 0 1 1 1 1 1 1 1 1 1 1 1 1 1 1 1 1 1 1 1 1 2 2 2 2 2 2 2 2 3 3 3 3 3 3 3
1 1 0 0 0 0 0 0 1 1 1 1 1 1 1 1 1 1 1 1 1 1 1 1 1 1 1 1 2 2 2 2 2 2 2 3 3 3 3 3 3 3
1 1 0 -0 -0 -0 0 0 0 1 1 1 1 1 1 1 1 1 1 1 1 1 1 1 1 1 1 1 1 2 2 2 2 2 2 2 2 3 3 3 3 3
1 1 0 -0 -0 -0 -0 0 0 0 1 1 1 1 1 1 1 1 1 1 1 1 1 1 1 1 1 1 1 1 2 2 2 2 2 2 2 2 3 3 3 3
1 0 0 -0 -0 -0 -0 0 0 0 0 1 1 1 1 1 1 1 1 1 1 1 1 1 1 1 1 1 1 1 1 2 2 2 2 2 2 2 2 2 3 3
1 0 0 -0 -0 -0 -0 -0 0 0 0 0 1 1 0 0 0 1 1 1 1 1 1 1 1 1 1 1 1 1 1 2 2 2 2 2 2 2 2 2 2 3
0 0 -0 -0 -0 -0 -0 -0 -0 0 0 0 0 0 0 0 0 1 1 1 1 1 1 1 1 1 1 1 1 1 1 1 2 2 2 2 2 2 2 2 2 2
0 -0 -0 -1 -1 -0 -0 -0 -0 -0 0 0 0 0 0 0 0 0 1 1 1 1 1 1 1 1 1 1 1 1 1 1 1 2 2 2 2 2 1 1 2 2
0 -0 -1 -1 -1 -1 -0 -0 -0 -0 -0 -0 -0 -0 -0 -0 0 0 1 1 1 1 1 1 1 1 1 1 1 1 1 1 1 1 1 1 1 1 1 1 1 1
-0 -0 -1 -1 -1 -1 -1 -1 -1 -0 -0 -0 -0 -0 -0 -0 -0 0 0 0 0 0 0 0 1 1 1 1 1 1 1 1 1 1 1 1 1 1 1 1 1 1
-0 -1 -1 -1 -1 -1 -1 -1 -1 -1 -1 -1 -1 -0 -0 -0 -0 -0 -0 -0 -0 -0 -0 0 0 0 0 0 0 1 1 1 1 1 1 1 1 1 1 1 1 1
-1 -1 -1 -1 -1 -1 -1 -1 -1 -1 -1 -1 -1 -1 -1 -1 -0 -0 -0 -0 -0 -0 -0 -0 -0 -0 -0 -0 0 0 0 0 0 0 0 1 1 1 1 1 1 1
-1 -1 -1 -1 -1 -1 -1 -1 -1 -1 -1 -1 -1 -1 -1 -1 -0 -0 -0 -1 -1 -1 -1 -1 -0 -0 -1 -0 -0 -0 -0 0 0 0 0 0 0 1 1 1 1 1
-1 -1 -1 -1 -1 -1 -1 -2 -2 -2 -2 -1 -1 -1 -1 -1 -1 -1 -1 -1 -1 -1 -1 -1 -1 -1 -1 -1 -1 -1 -1 -1 -0 -0 0 0 0 0 0 0 0 0
-1 -1 -1 -2 -2 -2 -2 -2 -2 -2 -2 -2 -2 -2 -2 -2 -2 -2 -2 -2 -1 -1 -1 -1 -1 -1 -1 -1 -1 -1 -1 -1 -1 -1 -0 -0 -0 -0 -0 -0 -0 -0
-1 -2 -2 -2 -2 -2 -2 -2 -2 -2 -2 -2 -2 -2 -2 -2 -2 -2 -2 -2 -1 -1 -1 -1 -1 -1 -1 -1 -1 -2 -2 -2 -1 -1 -1 -1 -1 -1 -1 -1 -1 -1
-2 -2 -2 -2 -2 -2 -2 -2 -2 -2 -3 -3 -3 -3 -3 -3 -2 -2 -2 -1 -1 -1 -1 -1 -1 -2 -2 -2 -2 -2 -2 -2 -2 -2 -1 -1 -1 -1 -1 -1 -1 -1
-2 -2 -2 -2 -3 -3 -3 -3 -3 -3 -3 -4 -4 -3 -3 -3 -2 -2 -2 -2 -2 -2 -2 -2 -2 -2 -2 -2 -2 -2 -2 -2 -2 -2 -2 -2 -2 -2 -2 -2 -2 -2
-2 -2 -2 -3 -3 -3 -3 -3 -3 -4 -4 -4 -4 -4 -3 -3 -3 -3 -3 -2 -2 -2 -2 -2 -2 -3 -3 -3 -3 -3 -3 -2 -2 -2 -2 -2 -2 -1 -1 -1 -1 -1
-3 -3 -3 -3 -4 -4 -4 -4 -4 -4 -4 -4 -4 -4 -4 -4 -4 -3 -3 -3 -3 -3 -3 -3 -3 -3 -3 -3 -3 -3 -3 -2 -2 -2 -2 -2 -1 -1 -1 -1 -1 -1
-3 -4 -4 -4 -4 -4 -4 -5 -5 -5 -4 -4 -5 -5 -5 -4 -4 -4 -3 -3 -3 -4 -3 -3 -3 -3 -3 -3 -3 -3 -3 -2 -2 -2 -2 -2 -1 -1 -1 -1 -1 -1
-4 -4 -4 -5 -5 -5 -5 -5 -5 -5 -5 -5 -5 -5 -5 -4 -4 -4 -4 -4 -4 -4 -4 -3 -3 -3 -3 -3 -3 -3 -3 -3 -3 -2 -2 -2 -2 -1 -1 -1 -1 -1
Height
3111 3111 3110 3110 3109 3109 3109 3109 3108 3108 3108 3108 3107 3107 3107 3107 3108 3108 3109 3110 3110 3110 3110 3110 3110 3110 3109 3109 3109 3110 3111 3111 3112 3112 3112 3112 3112 3113 3113 3113 3114 3114
3109 3109 3109 3109 3108 3108 3108 3107 3107 3106 3106 3106 3106 3105 3105 3105 3105 3105 3106 3106 3107 3107 3108 3108 3108 3107 3107 3107 3107 3107 3107 3107 3108 3108 3108 3109 3109 3109 3110 3110 3110 3110
3107 3107 3107 3107 3106 3106 3106 3106 3105 3104 3104 3104 3104 3103 3103 3103 3103 3103 3103 3103 3104 3104 3104 3105 3105 3104 3104 3104 3104 3104 3104 3103 3103 3104 3104 3105 3105 3106 3106 3106 3105 3106
3105 3105 3105 3104 3104 3104 3104 3103 3103 3102 3102 3102 3101 3101 3101 3101 3100 3100 3100 3100 3100 3101 3101 3101 3101 3101 3101 3100 3100 3100 3100 3100 3099 3099 3099 3100 3101 3101 3102 3101 3101 3101
3102 3102 3102 3102 3102 3101 3101 3101 3101 3100 3100 3099 3099 3099 3098 3098 3098 3097 3097 3097 3097 3097 3097 3097 3097 3097 3096 3096 3096 3097 3097 3096 3096 3095 3095 3096 3096 3096 3097 3097 3097 3097
3100 3100 3099 3099 3099 3099 3099 3098 3098 3098 3097 3097 3096 3096 3095 3095 3095 3094 3094 3094 3094 3094 3094 3093 3093 3093 3092 3092 3092 3093 3093 3093 3092 3091 3090 3091 3091 3091 3091 3091 3092 3092
3098 3098 3097 3097 3096 3096 3095 3095 3095 3095 3094 3094 3094 3093 3093 3092 3092 3091 3091 3090 3090 3090 3090 3089 3089 3089 3088 3088 3088 3088 3088 3088 3088 3087 3086 3086 3086 3086 3086 3086 3086 3086
3096 3095 3095 3094 3094 3093 3093 3092 3092 3092 3091 3091 3091 3090 3090 3089 3089 3088 3088 3087 3087 3086 3086 3085 3085 3084 3084 3084 3084 3084 3084 3084 3083 3083 3082 3082 3082 3082 3081 3081 3080 3081
3093 3093 3092 3091 3091 3090 3090 3089 3089 3088 3088 3088 3088 3087 3087 3086 3085 3085 3084 3084 3083 3083 3082 3082 3081 3080 3079 3079 3079 3079 3079 3079 3078 3078 3077 3077 3077 3077 3077 3076 3075 3075
3090 3090 3089 3088 3088 3087 3087 3086 3086 3085 3085 3085 3085 3084 3084 3083 3082 3081 3081 3080 3080 3079 3079 3078 3077 3076 3075 3074 3074 3074 3074 3073 3073 3073 3072 3072 3072 3072 3072 3071 3070 3070
3087 3087 3086 3085 3085 3084 3084 3083 3082 3082 3082 3081 3081 3080 3080 3079 3079 3078 3077 3076 3076 3075 3074 3073 3073 3072 3071 3070 3070 3069 3069 3068 3067 3067 3066 3066 3066 3066 3066 3066 3065 3065
3083 3083 3083 3082 3081 3081 3080 3080 3079 3079 3078 3077 3077 3076 3076 3075 3075 3074 3073 3073 3072 3071 3070 3069 3068 3067 3066 3066 3065 3064 3064 3063 3062 3061 3060 3060 3061 3061 3061 3060 3060 3060
3080 3079 3079 3079 3078 3077 3077 3076 3076 3075 3074 3074 3073 3072 3071 3071 3070 3069 3069 3068 3067 3067 3065 3064 3063 3062 3061 3060 3060 3059 3058 3057 3056 3055 3055 3054 3054 3055 3055 3055 3055 3055
3076 3076 3075 3075 3075 3074 3073 3073 3072 3071 3071 3070 3069 3068 3067 3066 3065 3065 3064 3063 3063 3062 3061 3060 3058 3057 3056 3055 3054 3053 3052 3051 3051 3050 3049 3049 3048 3049 3049 3049 3049 3049
3072 3072 3072 3071 3071 3070 3070 3069 3068 3068 3067 3066 3065 3064 3063 3061 3060 3060 3059 3058 3058 3057 3056 3054 3053 3052 3051 3050 3048 3047 3046 3045 3045 3044 3043 3043 3042 3043 3043 3043 3043 3044
3068 3068 3068 3067 3067 3066 3066 3065 3064 3063 3062 3061 3060 3059 3058 3057 3056 3055 3054 3053 3052 3051 3050 3049 3048 3047 3045 3044 3043 3041 3040 3039 3038 3038 3037 3037 3036 3036 3036 3037 3037 3037
3064 3064 3064 3063 3063 3062 3061 3061 3060 3059 3058 3057 3056 3054 3053 3052 3051 3050 3049 3047 3046 3045 3044 3043 3042 3041 3040 3038 3037 3035 3034 3033 3032 3032 3031 3030 3030 3030 3030 3030 3030 3030
3059 3059 3059 3059 3058 3058 3057 3056 3055 3055 3054 3053 3051 3050 3048 3047 3046 3045 3043 3042 3041 3039 3038 3037 3036 3035 3034 3032 3031 3029 3028 3026 3025 3025 3024 3024 3024 3023 3023 3023 3023 3023
3055 3055 3055 3055 3055 3054 3053 3052 3051 3050 3049 3048 3047 3045 3043 3042 3041 3040 3039 3037 3035 3034 3032 3031 3030 3029 3028 3026 3025 3023 3022 3020 3019 3018 3018 3017 3017 3017 3016 3016 3016 3016
3051 3052 3052 3052 3051 3050 3049 3048 3047 3046 3045 3044 3042 3040 3039 3038 3037 3036 3034 3032 3030 3028 3026 3025 3024 3023 3021 3019 3018 3017 3015 3014 3012 3011 3011 3011 3010 3010 3009 3009 3009 3008
3048 3049 3049 3048 3047 3046 3045 3044 3043 3042 3040 3039 3037 3035 3034 3033 3032 3030 3028 3026 3024 3022 3020 3019 3018 3016 3015 3013 3011 3010 3009 3007 3006 3004 3004 3004 3003 3003 3002 3002 3002 3001
3045 3046 3045 3044 3043 3041 3041 3039 3038 3037 3036 3034 3032 3031 3030 3028 3026 3024 3022 3020 3018 3016 3014 3013 3012 3010 3008 3006 3005 3003 3002 3000 2999 2998 2997 2996 2996 2996 2996 2995 2995 2994
3042 3042 3041 3039 3038 3037 3036 3035 3034 3032 3031 3029 3028 3026 3025 3022 3020 3018 3016 3014 3012 3010 3008 3007 3005 3004 3002 3000 2999 2997 2995 2994 2992 2991 2989 2989 2988 2988 2988 2988 2988 2988
3038 3038 3036 3035 3034 3033 3032 3030 3029 3027 3026 3025 3023 3022 3020 3017 3015 3012 3010 3008 3006 3004 3003 3001 2999 2998 2996 2994 2992 2991 2989 2987 2985 2983 2981 2980 2980 2980 2980 2979 2979 2979
3034 3033 3032 3031 3030 3029 3027 3026 3025 3023 3022 3021 3020 3017 3014 3012 3009 3007 3005 3003 3001 2999 2997 2995 2993 2992 2990 2988 2986 2984 2982 2979 2977 2974 2973 2972 2971 2971 2970 2970 2969 2970
3028 3028 3028 3028 3026 3025 3023 3022 3021 3019 3018 3017 3015 3012 3009 3006 3004 3002 2999 2998 2996 2993 2991 2989 2987 2985 2984 2982 2980 2977 2974 2972 2969 2966 2964 2962 2961 2960 2959 2959 2959 2959
Wind_Speed
18 18 19 19 20 20 20 20 20 19 19 19 20 20 19 19 18 18 17 16 16 16 15 16 16 16 17 17 18 18 18 18 17 18 20 22 23 25 26 27 28 30
19 19 19 19 19 20 19 19 19 19 19 19 19 20 20 20 20 20 20 19 19 18 18 18 18 18 18 19 19 21 22 22 21 21 21 21 22 23 24 26 28 28
19 19 19 19 19 19 19 18 18 19 19 19 19 20 20 20 21 21 21 22 21 21 21 21 21 22 22 22 22 22 23 24 24 24 24 23 22 22 23 24 26 27
19 19 19 18 18 19 18 17 18 19 19 19 20 20 21 21 21 22 22 23 23 23 24 24 24 25 25 25 25 24 24 24 25 26 26 25 24 24 23 24 26 27
19 19 18 18 18 18 18 18 19 19 20 21 21 21 22 22 22 23 23 24 24 25 25 25 26 26 27 27 26 26 25 25 26 27 28 27 26 26 25 25 27 27
20 19 18 18 19 19 19 19 19 20 21 21 22 22 23 23 24 24 25 25 25 26 26 26 26 26 27 28 28 27 26 26 26 27 28 28 28 28 27 27 28 28
21 19 18 19 20 21 20 20 20 20 21 21 22 22 23 23 24 25 25 25 26 26 26 26 27 27 27 28 29 29 28 27 27 27 28 28 28 29 29 29 29 29
23 21 19 20 21 21 21 21 21 21 21 21 21 22 23 23 24 25 25 26 26 26 27 28 28 28 29 29 29 29 29 29 28 28 28 28 28 28 29 30 31 31
25 23 21 21 21 22 21 21 21 21 22 21 21 22 23 23 24 25 25 26 26 26 27 28 29 29 30 31 30 30 30 30 29 29 29 29 28 28 29 31 32 32
27 25 23 22 22 22 22 22 22 23 23 22 22 22 22 23 24 25 26 27 27 27 28 29 29 30 31 31 31 31 31 31 31 31 31 31 30 30 30 31 32 33
29 26 23 23 23 23 23 23 23 24 24 24 23 23 23 23 24 25 26 27 29 30 30 31 32 32 32 32 32 32 32 32 33 33 33 33 32 32 32 32 33 33
28 26 24 24 24 24 24 24 25 25 25 25 24 24 24 25 25 27 28 29 30 31 32 33 34 35 35 34 34 33 33 34 34 35 35 35 35 34 34 34 35 34
28 27 26 25 25 25 25 25 26 26 26 26 25 26 26 27 28 29 30 31 32 33 34 35 36 37 37 37 36 35 35 35 36 36 37 37 37 36 36 36 37 36
28 28 27 26 25 26 26 26 27 27 26 26 26 27 28 29 30 31 32 33 34 35 35 36 37 38 38 38 38 37 37 37 37 37 38 38 38 38 38 38 38 38
29 28 27 26 26 26 26 27 27 27 26 26 27 29 30 30 32 32 33 34 35 36 37 37 38 39 39 39 39 38 38 38 38 38 38 39 39 39 39 39 39 39
28 27 27 26 27 27 27 27 27 27 27 28 29 30 31 32 33 34 35 36 37 38 38 39 40 40 40 39 39 39 39 39 39 39 39 39 39 40 40 40 40 40
27 26 26 26 27 28 28 27 28 28 28 29 30 31 33 34 35 36 37 37 39 40 40 40 40 40 40 39 40 40 39 39 39 39 40 40 40 40 40 40 41 41
26 25 26 27 27 27 28 28 28 29 30 30 31 33 34 35 36 37 38 39 40 41 41 41 41 40 40 39 40 40 40 40 40 40 40 41 41 41 41 41 42 42
25 25 26 27 27 27 28 29 29 30 31 31 32 33 34 35 36 37 38 39 40 42 42 43 42 41 40 40 40 40 40 41 41 41 41 42 42 42 42 42 43 44
25 25 26 26 26 28 28 29 30 30 31 32 32 34 35 36 36 37 38 39 41 42 43 43 43 42 41 41 41 40 41 41 42 43 43 43 43 43 44 44 44 45
25 25 25 25 26 27 28 29 30 30 31 32 33 34 35 36 36 37 39 40 42 43 44 44 43 43 42 42 41 41 41 42 43 45 45 45 45 45 45 46 46 46
25 24 24 24 25 25 26 28 29 30 31 32 33 35 35 36 37 38 39 41 42 43 44 44 43 42 41 41 42 42 43 44 45 46 47 47 47 47 47 48 48 48
24 23 23 23 23 23 25 26 28 29 31 33 34 35 35 36 38 39 40 41 43 43 43 43 42 40 40 41 42 42 44 45 46 48 49 50 50 50 50 50 50 50
22 21 22 22 21 22 24 25 27 29 31 33 34 34 36 37 38 39 40 41 42 42 41 41 40 40 40 41 42 43 45 46 48 50 51 52 52 52 53 53 52 52
19 18 19 20 21 22 23 24 27 29 31 33 33 34 35 37 37 39 39 39 39 39 39 40 40 39 40 41 42 44 46 47 49 51 53 53 54 54 54 54 54 53
17 17 19 20 20 21 23 24 27 29 31 32 32 33 34 35 36 37 37 38 38 38 38 39 40 41 41 41 43 44 46 48 50 52 54 55 55 55 56 55 54 53
Wind_Direction
280 283 285 285 285 286 287 289 291 291 292 293 293 293 291 287 283 280 278 276 275 276 277 279 284 287 290 291 290 288 284 280 279 276 272 269 266 263 260 259 257 255
280 283 284 283 283 283 284 287 289 288 288 288 289 289 289 287 283 281 279 277 276 276 276 277 277 278 279 280 283 286 287 287 284 280 276 274 271 268 265 262 259 258
282 283 282 282 282 282 283 284 286 286 285 285 285 286 285 284 284 282 282 281 280 280 279 279 279 278 278 277 278 281 283 286 286 284 280 277 275 272 269 265 261 258
282 281 280 280 281 282 283 284 284 284 284 283 282 283 284 284 284 283 283 283 283 283 283 283 282 282 281 279 278 280 281 283 284 284 282 280 278 274 270 267 264 260
281 280 281 281 282 283 282 282 283 282 283 283 283 284 285 285 285 284 283 284 284 285 285 286 286 286 285 285 282 281 281 282 283 282 281 280 279 276 272 268 266 264
280 281 282 284 285 286 285 283 283 282 282 282 282 283 284 284 285 285 286 287 287 287 288 287 287 287 286 286 286 284 282 281 281 280 280 279 278 276 274 271 267 264
283 282 283 286 288 289 290 288 285 284 283 282 282 282 283 283 284 285 286 288 288 289 289 288 287 286 285 284 285 285 284 282 279 278 277 278 277 276 274 272 269 265
286 286 285 288 289 289 290 289 287 286 285 284 284 283 283 284 285 286 286 287 288 289 289 289 288 287 285 284 283 283 283 281 279 276 274 274 275 275 274 272 270 267
290 289 288 288 287 287 287 286 286 287 286 286 285 284 285 286 286 287 287 287 287 287 287 288 288 288 287 286 284 283 282 280 278 275 273 272 272 272 271 271 269 268
291 288 288 288 287 285 285 285 285 287 287 287 286 285 285 286 286 286 287 287 288 288 288 288 287 287 287 286 285 283 281 279 277 274 271 270 270 270 269 268 268 268
288 287 288 287 285 284 283 283 285 287 288 289 288 287 287 286 286 286 287 288 289 289 290 289 288 287 286 286 285 283 281 279 276 274 271 268 267 268 268 267 267 267
284 285 288 285 283 283 283 283 285 287 289 290 290 289 288 288 288 288 288 289 290 291 291 291 291 290 288 287 285 283 281 277 274 272 270 268 266 265 266 267 267 266
280 284 285 282 280 281 282 283 285 288 290 290 290 289 289 290 290 291 291 291 292 292 293 293 292 292 291 290 288 285 281 278 275 272 269 268 267 265 265 267 267 267
277 281 280 278 278 280 281 283 285 288 289 288 288 288 290 291 292 292 292 293 293 293 293 293 293 293 293 292 290 287 283 279 276 273 271 269 268 267 266 267 268 268
274 276 277 277 279 280 282 284 286 287 287 287 288 289 291 291 291 291 292 292 293 293 294 294 294 294 293 292 290 288 284 281 278 275 273 271 270 269 268 267 267 268
272 273 275 278 280 282 284 286 287 287 287 288 289 290 290 289 289 289 290 292 293 294 294 294 294 294 294 292 290 287 284 281 278 276 274 272 271 270 270 269 268 268
271 272 274 277 279 282 285 286 287 287 287 288 288 288 287 287 288 290 292 294 295 295 295 294 294 293 292 291 288 286 283 279 276 274 273 272 271 270 270 270 270 269
271 270 272 276 279 283 285 284 285 285 286 286 285 286 286 287 290 292 294 296 296 296 295 294 293 292 290 288 285 282 280 277 275 273 271 270 270 270 271 271 270 270
269 268 271 276 279 280 280 280 282 282 283 284 284 285 286 288 290 292 295 296 295 295 294 293 293 292 289 286 282 279 276 274 273 271 270 270 270 270 271 271 270 270
265 267 270 273 273 274 275 278 280 281 282 283 284 286 287 288 291 293 294 294 294 294 294 294 293 291 288 284 280 276 273 271 270 270 270 270 270 271 271 271 270 270
264 266 269 270 271 272 275 277 278 279 282 284 286 287 288 291 293 294 294 294 294 294 294 293 292 290 286 283 279 275 272 270 269 269 269 270 270 270 270 271 271 271
266 268 269 271 273 275 275 276 277 280 283 285 287 289 292 295 296 297 297 296 295 294 293 292 290 288 286 283 280 277 274 272 270 270 270 269 269 269 268 268 269 270
266 268 271 274 275 274 273 274 278 282 284 287 291 296 300 301 300 299 298 296 295 294 292 291 289 288 286 284 282 280 277 275 274 273 272 271 271 270 269 269 269 269
264 267 270 271 271 272 274 278 283 287 290 294 299 303 302 300 299 297 295 294 294 293 292 291 290 289 288 286 284 283 281 279 278 276 275 274 274 273 272 271 271 270
260 259 261 266 271 275 280 285 289 292 295 299 301 301 298 297 296 296 294 294 293 293 292 292 291 290 289 288 287 286 284 283 281 280 279 278 277 276 275 274 273 273
256 259 265 271 275 279 284 289 292 294 297 299 298 297 296 296 296 296 295 295 295 295 294 294 293 292 291 290 289 288 287 286 285 283 283 282 281 280 279 278 277 277